Time,TemperatureF,DewpointF,PressureIn,WindDirection,WindDirectionDegrees,WindSpeedMPH,WindSpeedGustMPH,Humidity,HourlyPrecipIn,Conditions,Clouds,dailyrainin,SoftwareType,DateUTC
2013-03-17 00:05:00,61.1,46.2,29.83,North,355,5.0,10.0,58,0.00,,,0.00,Wunderground v.1.15,2013-03-17 04:05:00,
2013-03-17 00:09:00,61.0,46.1,29.83,North,355,6.0,10.0,58,0.00,,,0.00,Wunderground v.1.15,2013-03-17 04:09:00,
2013-03-17 00:19:00,60.9,46.5,29.83,North,355,6.0,6.0,59,0.00,,,0.00,Wunderground v.1.15,2013-03-17 04:19:00,
2013-03-17 00:24:00,60.8,46.4,29.83,North,360,5.0,10.0,59,0.00,,,0.00,Wunderground v.1.15,2013-03-17 04:24:00,
2013-03-17 00:29:00,60.7,46.3,29.83,NNW,339,5.0,5.0,59,0.00,,,0.00,Wunderground v.1.15,2013-03-17 04:29:00,
2013-03-17 00:34:00,60.7,46.3,29.83,North,5,5.0,10.0,59,0.00,,,0.00,Wunderground v.1.15,2013-03-17 04:34:00,
2013-03-17 00:39:00,60.7,46.3,29.83,NNW,346,5.0,5.0,59,0.00,,,0.00,Wunderground v.1.15,2013-03-17 04:39:00,
2013-03-17 00:49:00,60.4,46.0,29.83,NNW,348,5.0,10.0,59,0.00,,,0.00,Wunderground v.1.15,2013-03-17 04:49:00,
2013-03-17 00:54:00,60.4,46.0,29.83,NNW,341,6.0,10.0,59,0.00,,,0.00,Wunderground v.1.15,2013-03-17 04:54:00,
2013-03-17 00:59:00,60.3,45.9,29.83,NNW,348,6.0,6.0,59,0.00,,,0.00,Wunderground v.1.15,2013-03-17 04:59:00,
2013-03-17 01:04:00,60.3,46.4,29.83,North,349,6.0,7.0,60,0.00,,,0.00,Wunderground v.1.15,2013-03-17 05:04:00,
2013-03-17 01:14:00,60.2,46.3,29.83,North,350,6.0,8.0,60,0.00,,,0.00,Wunderground v.1.15,2013-03-17 05:14:00,
2013-03-17 01:19:00,60.2,46.3,29.83,North,350,5.0,5.0,60,0.00,,,0.00,Wunderground v.1.15,2013-03-17 05:19:00,
2013-03-17 01:24:00,60.0,46.1,29.83,North,355,3.0,8.0,60,0.00,,,0.00,Wunderground v.1.15,2013-03-17 05:24:00,
2013-03-17 01:29:00,59.8,45.9,29.84,North,355,2.0,2.0,60,0.00,,,0.00,Wunderground v.1.15,2013-03-17 05:29:00,
2013-03-17 01:39:00,58.7,45.7,29.84,NNW,344,0.0,8.0,62,0.00,,,0.00,Wunderground v.1.15,2013-03-17 05:39:00,
2013-03-17 01:44:00,58.6,46.0,29.83,NNW,332,0.0,8.0,63,0.00,,,0.00,Wunderground v.1.15,2013-03-17 05:44:00,
2013-03-17 01:49:00,58.7,46.1,29.83,NNW,332,0.0,8.0,63,0.00,,,0.00,Wunderground v.1.15,2013-03-17 05:49:00,
2013-03-17 01:54:00,59.0,46.0,29.84,NNW,345,0.0,8.0,62,0.00,,,0.00,Wunderground v.1.15,2013-03-17 05:54:00,
2013-03-17 01:59:00,59.3,45.4,29.84,NNW,331,0.0,8.0,60,0.00,,,0.00,Wunderground v.1.15,2013-03-17 05:59:00,
2013-03-17 02:04:00,59.6,45.2,29.84,NW,309,0.0,8.0,59,0.00,,,0.00,Wunderground v.1.15,2013-03-17 06:04:00,
2013-03-17 02:14:00,59.5,45.2,29.84,NW,309,0.0,4.0,59,0.00,,,0.00,Wunderground v.1.15,2013-03-17 06:14:00,
2013-03-17 02:19:00,59.3,45.0,29.84,NNW,333,1.0,4.0,59,0.00,,,0.00,Wunderground v.1.15,2013-03-17 06:19:00,
2013-03-17 02:24:00,59.4,45.1,29.84,WSW,247,1.0,4.0,59,0.00,,,0.00,Wunderground v.1.15,2013-03-17 06:24:00,
2013-03-17 02:29:00,59.3,44.5,29.83,West,281,0.0,4.0,58,0.00,,,0.00,Wunderground v.1.15,2013-03-17 06:29:00,
2013-03-17 02:34:00,59.3,44.5,29.83,WNW,294,1.0,4.0,58,0.00,,,0.00,Wunderground v.1.15,2013-03-17 06:34:00,
2013-03-17 02:39:00,59.3,45.0,29.84,WNW,296,1.0,1.0,59,0.00,,,0.00,Wunderground v.1.15,2013-03-17 06:39:00,
2013-03-17 02:44:00,59.2,44.9,29.83,WSW,240,0.0,4.0,59,0.00,,,0.00,Wunderground v.1.15,2013-03-17 06:44:00,
2013-03-17 02:49:00,59.0,44.7,29.83,SW,223,0.0,4.0,59,0.00,,,0.00,Wunderground v.1.15,2013-03-17 06:49:00,
2013-03-17 02:54:00,58.9,45.0,29.83,SW,223,0.0,4.0,60,0.00,,,0.00,Wunderground v.1.15,2013-03-17 06:54:00,
2013-03-17 03:05:00,58.6,44.8,29.83,SSW,193,1.0,8.0,60,0.00,,,0.00,Wunderground v.1.15,2013-03-17 07:05:00,
2013-03-17 03:14:00,58.5,45.1,29.83,SSW,194,0.0,8.0,61,0.00,,,0.00,Wunderground v.1.15,2013-03-17 07:14:00,
2013-03-17 03:24:00,58.2,44.8,29.83,SSW,201,1.0,8.0,61,0.00,,,0.00,Wunderground v.1.15,2013-03-17 07:24:00,
2013-03-17 03:29:00,58.1,45.1,29.83,SSW,207,0.0,8.0,62,0.00,,,0.00,Wunderground v.1.15,2013-03-17 07:29:00,
2013-03-17 03:34:00,58.0,44.6,29.83,SSW,200,0.0,8.0,61,0.00,,,0.00,Wunderground v.1.15,2013-03-17 07:34:00,
2013-03-17 03:39:00,57.7,44.8,29.83,SSW,200,0.0,8.0,62,0.00,,,0.00,Wunderground v.1.15,2013-03-17 07:39:00,
2013-03-17 03:44:00,57.5,44.6,29.83,SSW,200,0.0,8.0,62,0.00,,,0.00,Wunderground v.1.15,2013-03-17 07:44:00,
2013-03-17 03:49:00,57.7,44.8,29.83,South,186,0.0,8.0,62,0.00,,,0.00,Wunderground v.1.15,2013-03-17 07:49:00,
2013-03-17 03:54:00,57.8,44.9,29.83,South,186,0.0,8.0,62,0.00,,,0.00,Wunderground v.1.15,2013-03-17 07:54:00,
2013-03-17 04:04:00,57.9,45.0,29.83,South,186,0.0,8.0,62,0.00,,,0.00,Wunderground v.1.15,2013-03-17 08:04:00,
2013-03-17 04:14:00,57.8,44.9,29.83,South,186,0.0,1.0,62,0.00,,,0.00,Wunderground v.1.15,2013-03-17 08:14:00,
2013-03-17 04:24:00,58.4,45.0,29.82,South,186,1.0,1.0,61,0.00,,,0.00,Wunderground v.1.15,2013-03-17 08:24:00,
2013-03-17 04:29:00,58.5,45.1,29.82,South,186,1.0,1.0,61,0.00,,,0.00,Wunderground v.1.15,2013-03-17 08:29:00,
2013-03-17 04:34:00,58.7,44.8,29.82,South,186,1.0,2.0,60,0.00,,,0.00,Wunderground v.1.15,2013-03-17 08:34:00,
2013-03-17 04:44:00,58.9,45.0,29.82,SSW,192,2.0,4.0,60,0.00,,,0.00,Wunderground v.1.15,2013-03-17 08:44:00,
2013-03-17 04:49:00,58.9,45.0,29.82,SSW,193,2.0,2.0,60,0.00,,,0.00,Wunderground v.1.15,2013-03-17 08:49:00,
2013-03-17 04:59:00,59.0,45.1,29.82,SSW,193,2.0,2.0,60,0.00,,,0.00,Wunderground v.1.15,2013-03-17 08:59:00,
2013-03-17 05:04:00,59.0,45.1,29.82,SSW,196,0.0,5.0,60,0.00,,,0.00,Wunderground v.1.15,2013-03-17 09:04:00,
2013-03-17 05:14:00,59.0,45.1,29.82,South,183,1.0,5.0,60,0.00,,,0.00,Wunderground v.1.15,2013-03-17 09:14:00,
2013-03-17 05:19:00,59.0,46.0,29.82,SSW,211,3.0,5.0,62,0.00,,,0.00,Wunderground v.1.15,2013-03-17 09:19:00,
2013-03-17 05:29:00,59.0,45.6,29.82,SSW,206,1.0,1.0,61,0.00,,,0.00,Wunderground v.1.15,2013-03-17 09:29:00,
2013-03-17 05:39:00,59.0,45.6,29.83,SW,224,1.0,1.0,61,0.00,,,0.00,Wunderground v.1.15,2013-03-17 09:39:00,
2013-03-17 05:44:00,59.0,45.6,29.82,South,190,0.0,5.0,61,0.00,,,0.00,Wunderground v.1.15,2013-03-17 09:44:00,
2013-03-17 05:49:00,59.0,45.6,29.83,SSW,204,0.0,5.0,61,0.00,,,0.00,Wunderground v.1.15,2013-03-17 09:49:00,
2013-03-17 05:54:00,58.6,45.6,29.83,SSW,211,0.0,5.0,62,0.00,,,0.00,Wunderground v.1.15,2013-03-17 09:54:00,
2013-03-17 06:04:00,58.5,45.5,29.83,SSW,210,0.0,5.0,62,0.00,,,0.00,Wunderground v.1.15,2013-03-17 10:04:00,
2013-03-17 06:14:00,58.2,45.7,29.83,SSW,195,1.0,3.0,63,0.00,,,0.00,Wunderground v.1.15,2013-03-17 10:14:00,
2013-03-17 06:24:00,57.6,45.5,29.83,SSW,194,0.0,3.0,64,0.00,,,0.00,Wunderground v.1.15,2013-03-17 10:24:00,
2013-03-17 06:29:00,57.6,45.5,29.83,SSW,194,0.0,3.0,64,0.00,,,0.00,Wunderground v.1.15,2013-03-17 10:29:00,
2013-03-17 06:34:00,57.5,45.4,29.84,SSW,209,0.0,3.0,64,0.00,,,0.00,Wunderground v.1.15,2013-03-17 10:34:00,
2013-03-17 06:44:00,57.3,45.6,29.84,SSW,208,0.0,3.0,65,0.00,,,0.00,Wunderground v.1.15,2013-03-17 10:44:00,
2013-03-17 06:49:00,57.4,45.7,29.84,SSW,208,0.0,3.0,65,0.00,,,0.00,Wunderground v.1.15,2013-03-17 10:49:00,
2013-03-17 06:54:00,57.4,45.7,29.84,SSW,208,0.0,3.0,65,0.00,,,0.00,Wunderground v.1.15,2013-03-17 10:54:00,
2013-03-17 06:59:00,57.4,45.7,29.84,SSW,208,0.0,3.0,65,0.00,,,0.00,Wunderground v.1.15,2013-03-17 10:59:00,
2013-03-17 07:09:00,57.2,45.5,29.84,SSW,208,0.0,0.0,65,0.00,,,0.00,Wunderground v.1.15,2013-03-17 11:09:00,
2013-03-17 07:14:00,57.3,45.6,29.84,SSW,208,0.0,0.0,65,0.00,,,0.00,Wunderground v.1.15,2013-03-17 11:14:00,
2013-03-17 07:19:00,57.3,45.6,29.84,SSW,211,0.0,0.0,65,0.00,,,0.00,Wunderground v.1.15,2013-03-17 11:19:00,
2013-03-17 07:24:00,57.1,45.4,29.85,SSW,211,0.0,0.0,65,0.00,,,0.00,Wunderground v.1.15,2013-03-17 11:24:00,
2013-03-17 07:29:00,56.9,45.7,29.85,SSW,211,0.0,0.0,66,0.00,,,0.00,Wunderground v.1.15,2013-03-17 11:29:00,
2013-03-17 07:34:00,56.8,45.6,29.85,SSW,211,0.0,0.0,66,0.00,,,0.00,Wunderground v.1.15,2013-03-17 11:34:00,
2013-03-17 07:39:00,56.6,45.4,29.84,SSW,211,0.0,0.0,66,0.00,,,0.00,Wunderground v.1.15,2013-03-17 11:39:00,
2013-03-17 07:44:00,56.5,45.3,29.84,SSW,211,0.0,0.0,66,0.00,,,0.00,Wunderground v.1.15,2013-03-17 11:44:00,
2013-03-17 07:53:00,56.4,45.6,29.85,SSW,211,0.0,0.0,67,0.00,,,0.00,Wunderground v.1.15,2013-03-17 11:53:00,
2013-03-17 07:58:00,56.3,45.5,29.85,SSW,211,0.0,0.0,67,0.00,,,0.00,Wunderground v.1.15,2013-03-17 11:58:00,
2013-03-17 08:04:00,56.3,45.5,29.85,SSW,211,0.0,0.0,67,0.00,,,0.00,Wunderground v.1.15,2013-03-17 12:04:00,
2013-03-17 08:14:00,56.2,45.8,29.86,SSW,211,0.0,0.0,68,0.00,,,0.00,Wunderground v.1.15,2013-03-17 12:14:00,
2013-03-17 08:19:00,56.1,45.7,29.86,SSW,211,0.0,0.0,68,0.00,,,0.00,Wunderground v.1.15,2013-03-17 12:19:00,
2013-03-17 08:28:00,56.2,45.8,29.85,SSW,211,0.0,0.0,68,0.00,,,0.00,Wunderground v.1.15,2013-03-17 12:28:00,
2013-03-17 08:33:00,56.2,46.2,29.85,SSW,211,0.0,0.0,69,0.00,,,0.00,Wunderground v.1.15,2013-03-17 12:33:00,
2013-03-17 08:38:00,56.2,46.2,29.86,SSW,211,0.0,0.0,69,0.00,,,0.00,Wunderground v.1.15,2013-03-17 12:38:00,
2013-03-17 08:43:00,56.2,45.8,29.86,SSW,211,0.0,0.0,68,0.00,,,0.00,Wunderground v.1.15,2013-03-17 12:43:00,
2013-03-17 08:49:00,56.5,46.4,29.87,SSW,211,0.0,0.0,69,0.00,,,0.00,Wunderground v.1.15,2013-03-17 12:49:00,
2013-03-17 08:54:00,56.7,46.6,29.87,SSW,211,0.0,0.0,69,0.00,,,0.00,Wunderground v.1.15,2013-03-17 12:54:00,
2013-03-17 08:58:00,56.9,46.4,29.87,SSW,211,0.0,0.0,68,0.00,,,0.00,Wunderground v.1.15,2013-03-17 12:58:00,
2013-03-17 09:04:00,57.1,46.6,29.87,SSW,211,0.0,0.0,68,0.00,,,0.00,Wunderground v.1.15,2013-03-17 13:04:00,
2013-03-17 09:13:00,57.3,47.2,29.87,SSW,211,0.0,0.0,69,0.00,,,0.00,Wunderground v.1.15,2013-03-17 13:13:00,
2013-03-17 09:18:00,57.4,47.3,29.87,SSW,211,0.0,0.0,69,0.00,,,0.00,Wunderground v.1.15,2013-03-17 13:18:00,
2013-03-17 09:23:00,57.5,46.6,29.87,SSW,211,0.0,0.0,67,0.00,,,0.00,Wunderground v.1.15,2013-03-17 13:23:00,
2013-03-17 09:29:00,57.6,46.7,29.88,SSW,211,0.0,0.0,67,0.00,,,0.00,Wunderground v.1.15,2013-03-17 13:29:00,
2013-03-17 09:38:00,58.1,47.2,29.88,SSW,211,0.0,0.0,67,0.00,,,0.00,Wunderground v.1.15,2013-03-17 13:38:00,
2013-03-17 09:43:00,58.4,47.9,29.88,SSW,211,0.0,0.0,68,0.00,,,0.00,Wunderground v.1.15,2013-03-17 13:43:00,
2013-03-17 09:49:00,58.6,47.7,29.88,SSW,211,0.0,0.0,67,0.00,,,0.00,Wunderground v.1.15,2013-03-17 13:49:00,
2013-03-17 09:54:00,59.0,47.2,29.88,SSW,211,0.0,0.0,65,0.00,,,0.00,Wunderground v.1.15,2013-03-17 13:54:00,
2013-03-17 10:04:00,59.1,47.7,29.88,SW,216,0.0,1.0,66,0.00,,,0.00,Wunderground v.1.15,2013-03-17 14:04:00,
2013-03-17 10:13:00,59.5,48.5,29.88,SW,216,0.0,1.0,67,0.00,,,0.00,Wunderground v.1.15,2013-03-17 14:13:00,
2013-03-17 10:18:00,59.6,47.8,29.88,SW,216,0.0,1.0,65,0.00,,,0.00,Wunderground v.1.15,2013-03-17 14:18:00,
2013-03-17 10:23:00,59.8,48.4,29.88,SW,216,0.0,1.0,66,0.00,,,0.00,Wunderground v.1.15,2013-03-17 14:23:00,
2013-03-17 10:29:00,59.8,48.4,29.88,SW,216,0.0,1.0,66,0.00,,,0.00,Wunderground v.1.15,2013-03-17 14:29:00,
2013-03-17 10:38:00,59.9,47.7,29.88,SW,215,0.0,1.0,64,0.00,,,0.00,Wunderground v.1.15,2013-03-17 14:38:00,
2013-03-17 10:48:00,60.2,48.0,29.88,SW,216,0.0,1.0,64,0.00,,,0.00,Wunderground v.1.15,2013-03-17 14:48:00,
2013-03-17 10:53:00,60.4,47.7,29.88,SW,215,0.0,1.0,63,0.00,,,0.00,Wunderground v.1.15,2013-03-17 14:53:00,
2013-03-17 10:58:00,60.9,48.2,29.88,SW,216,0.0,1.0,63,0.00,,,0.00,Wunderground v.1.15,2013-03-17 14:58:00,
2013-03-17 11:04:00,61.5,47.9,29.88,SSW,211,0.0,1.0,61,0.00,,,0.00,Wunderground v.1.15,2013-03-17 15:04:00,
2013-03-17 11:13:00,61.6,47.6,29.87,SSW,211,0.0,1.0,60,0.00,,,0.00,Wunderground v.1.15,2013-03-17 15:13:00,
2013-03-17 11:23:00,62.0,47.0,29.87,SSW,192,2.0,2.0,58,0.00,,,0.00,Wunderground v.1.15,2013-03-17 15:23:00,
2013-03-17 11:28:00,62.2,47.7,29.87,SSW,192,2.0,2.0,59,0.00,,,0.00,Wunderground v.1.15,2013-03-17 15:28:00,
2013-03-17 11:33:00,63.1,48.5,29.87,SSW,192,0.0,2.0,59,0.00,,,0.00,Wunderground v.1.15,2013-03-17 15:33:00,
2013-03-17 11:43:00,64.1,48.1,29.87,SSW,192,0.0,1.0,56,0.00,,,0.00,Wunderground v.1.15,2013-03-17 15:43:00,
2013-03-17 11:48:00,63.4,46.9,29.87,NNE,14,0.0,1.0,55,0.00,,,0.00,Wunderground v.1.15,2013-03-17 15:48:00,
2013-03-17 11:53:00,63.7,47.7,29.87,North,5,1.0,1.0,56,0.00,,,0.00,Wunderground v.1.15,2013-03-17 15:53:00,
2013-03-17 11:58:00,63.8,46.8,29.87,NNE,18,1.0,1.0,54,0.00,,,0.00,Wunderground v.1.15,2013-03-17 15:58:00,
2013-03-17 12:03:00,64.1,47.1,29.87,WSW,251,1.0,6.0,54,0.00,,,0.00,Wunderground v.1.15,2013-03-17 16:03:00,
2013-03-17 12:13:00,65.0,47.4,29.87,SSW,213,0.0,6.0,53,0.00,,,0.00,Wunderground v.1.15,2013-03-17 16:13:00,
2013-03-17 12:18:00,65.0,46.9,29.87,SSW,207,1.0,1.0,52,0.00,,,0.00,Wunderground v.1.15,2013-03-17 16:18:00,
2013-03-17 12:23:00,64.9,46.8,29.86,West,260,1.0,6.0,52,0.00,,,0.00,Wunderground v.1.15,2013-03-17 16:23:00,
2013-03-17 12:33:00,65.0,47.4,29.86,WSW,238,1.0,6.0,53,0.00,,,0.00,Wunderground v.1.15,2013-03-17 16:33:00,
2013-03-17 12:38:00,65.6,47.5,29.86,SSW,199,1.0,6.0,52,0.00,,,0.00,Wunderground v.1.15,2013-03-17 16:38:00,
2013-03-17 12:43:00,65.7,47.1,29.86,SSW,211,0.0,6.0,51,0.00,,,0.00,Wunderground v.1.15,2013-03-17 16:43:00,
2013-03-17 12:53:00,66.3,48.7,29.86,NNW,334,1.0,6.0,53,0.00,,,0.00,Wunderground v.1.15,2013-03-17 16:53:00,
2013-03-17 12:58:00,67.4,48.1,29.85,North,5,0.0,6.0,50,0.00,,,0.00,Wunderground v.1.15,2013-03-17 16:58:00,
2013-03-17 13:03:00,66.9,47.6,29.85,NW,308,1.0,6.0,50,0.00,,,0.00,Wunderground v.1.15,2013-03-17 17:03:00,
2013-03-17 13:13:00,67.2,47.9,29.85,North,350,1.0,6.0,50,0.00,,,0.00,Wunderground v.1.15,2013-03-17 17:13:00,
2013-03-17 13:23:00,66.2,47.0,29.84,SW,215,0.0,6.0,50,0.00,,,0.00,Wunderground v.1.15,2013-03-17 17:23:00,
2013-03-17 13:33:00,67.1,46.2,29.84,SW,221,1.0,6.0,47,0.00,,,0.00,Wunderground v.1.15,2013-03-17 17:33:00,
2013-03-17 13:43:00,68.1,45.9,29.83,SSW,213,2.0,6.0,45,0.00,,,0.00,Wunderground v.1.15,2013-03-17 17:43:00,
2013-03-17 13:48:00,68.6,48.1,29.83,South,190,1.0,1.0,48,0.00,,,0.00,Wunderground v.1.15,2013-03-17 17:48:00,
2013-03-17 13:53:00,68.2,46.6,29.82,SSW,205,1.0,6.0,46,0.00,,,0.00,Wunderground v.1.15,2013-03-17 17:53:00,
2013-03-17 13:58:00,69.2,46.4,29.82,South,182,1.0,1.0,44,0.00,,,0.00,Wunderground v.1.15,2013-03-17 17:58:00,
2013-03-17 14:03:00,69.3,48.2,29.82,South,172,2.0,2.0,47,0.00,,,0.00,Wunderground v.1.15,2013-03-17 18:03:00,
2013-03-17 14:13:00,71.1,47.5,29.81,SSW,196,2.0,11.0,43,0.00,,,0.00,Wunderground v.1.15,2013-03-17 18:13:00,
2013-03-17 14:18:00,70.8,47.2,29.80,SSW,194,2.0,2.0,43,0.00,,,0.00,Wunderground v.1.15,2013-03-17 18:18:00,
2013-03-17 14:23:00,70.9,47.9,29.80,South,188,3.0,8.0,44,0.00,,,0.00,Wunderground v.1.15,2013-03-17 18:23:00,
2013-03-17 14:33:00,71.3,47.0,29.79,SW,223,6.0,11.0,42,0.00,,,0.00,Wunderground v.1.15,2013-03-17 18:33:00,
2013-03-17 14:38:00,71.0,48.0,29.79,SSE,150,6.0,6.0,44,0.00,,,0.00,Wunderground v.1.15,2013-03-17 18:38:00,
2013-03-17 14:43:00,71.1,46.8,29.79,SSW,201,3.0,11.0,42,0.00,,,0.00,Wunderground v.1.15,2013-03-17 18:43:00,
2013-03-17 14:53:00,71.3,48.9,29.78,South,189,6.0,6.0,45,0.00,,,0.00,Wunderground v.1.15,2013-03-17 18:53:00,
2013-03-17 14:58:00,71.6,47.3,29.78,SSW,194,3.0,11.0,42,0.00,,,0.00,Wunderground v.1.15,2013-03-17 18:58:00,
2013-03-17 15:03:00,70.4,46.8,29.78,West,276,1.0,11.0,43,0.00,,,0.00,Wunderground v.1.15,2013-03-17 19:03:00,
2013-03-17 15:13:00,72.0,45.7,29.77,SSW,199,2.0,7.0,39,0.00,,,0.00,Wunderground v.1.15,2013-03-17 19:13:00,
2013-03-17 15:18:00,71.2,45.0,29.78,SW,215,3.0,3.0,39,0.00,,,0.00,Wunderground v.1.15,2013-03-17 19:18:00,
2013-03-17 15:23:00,70.3,44.8,29.77,SSW,195,4.0,4.0,40,0.00,,,0.00,Wunderground v.1.15,2013-03-17 19:23:00,
2013-03-17 15:28:00,69.6,44.8,29.77,South,190,5.0,7.0,41,0.00,,,0.00,Wunderground v.1.15,2013-03-17 19:28:00,
2013-03-17 15:33:00,69.4,45.9,29.77,South,171,4.0,7.0,43,0.00,,,0.00,Wunderground v.1.15,2013-03-17 19:33:00,
2013-03-17 15:43:00,69.3,45.8,29.76,SSW,196,2.0,5.0,43,0.00,,,0.00,Wunderground v.1.15,2013-03-17 19:43:00,
2013-03-17 15:48:00,69.3,45.8,29.76,South,180,3.0,3.0,43,0.00,,,0.00,Wunderground v.1.15,2013-03-17 19:48:00,
2013-03-17 15:53:00,69.3,45.8,29.76,South,182,3.0,7.0,43,0.00,,,0.00,Wunderground v.1.15,2013-03-17 19:53:00,
2013-03-17 16:03:00,69.2,45.7,29.75,SE,124,4.0,4.0,43,0.00,,,0.00,Wunderground v.1.15,2013-03-17 20:03:00,
2013-03-17 16:13:00,69.0,45.6,29.76,South,184,6.0,6.0,43,0.00,,,0.00,Wunderground v.1.15,2013-03-17 20:13:00,
2013-03-17 16:18:00,68.8,46.6,29.76,South,191,4.0,11.0,45,0.00,,,0.00,Wunderground v.1.15,2013-03-17 20:18:00,
2013-03-17 16:23:00,68.7,46.5,29.76,SSW,201,3.0,11.0,45,0.00,,,0.00,Wunderground v.1.15,2013-03-17 20:23:00,
2013-03-17 16:28:00,68.7,46.5,29.76,SW,221,4.0,11.0,45,0.00,,,0.00,Wunderground v.1.15,2013-03-17 20:28:00,
2013-03-17 16:33:00,68.5,46.3,29.76,SSW,196,4.0,11.0,45,0.00,,,0.00,Wunderground v.1.15,2013-03-17 20:33:00,
2013-03-17 16:38:00,68.3,46.1,29.76,SSW,201,4.0,12.0,45,0.00,,,0.00,Wunderground v.1.15,2013-03-17 20:38:00,
2013-03-17 16:43:00,67.9,46.3,29.77,South,186,4.0,12.0,46,0.00,,,0.00,Wunderground v.1.15,2013-03-17 20:43:00,
2013-03-17 16:53:00,67.8,46.3,29.76,South,186,4.0,6.0,46,0.00,,,0.00,Wunderground v.1.15,2013-03-17 20:53:00,
2013-03-17 16:58:00,67.6,46.6,29.77,SE,129,5.0,11.0,47,0.00,,,0.00,Wunderground v.1.15,2013-03-17 20:58:00,
2013-03-17 17:03:00,67.5,46.6,29.77,South,180,4.0,12.0,47,0.00,,,0.00,Wunderground v.1.15,2013-03-17 21:03:00,
2013-03-17 17:13:00,67.1,46.7,29.77,South,180,5.0,12.0,48,0.00,,,0.00,Wunderground v.1.15,2013-03-17 21:13:00,
2013-03-17 17:23:00,66.8,47.0,29.77,South,178,3.0,6.0,49,0.00,,,0.00,Wunderground v.1.15,2013-03-17 21:23:00,
2013-03-17 17:28:00,66.6,47.9,29.77,South,170,3.0,3.0,51,0.00,,,0.00,Wunderground v.1.15,2013-03-17 21:28:00,
2013-03-17 17:33:00,66.4,48.2,29.78,SSW,194,4.0,8.0,52,0.00,,,0.00,Wunderground v.1.15,2013-03-17 21:33:00,
2013-03-17 17:38:00,66.1,48.5,29.78,South,189,4.0,12.0,53,0.00,,,0.00,Wunderground v.1.15,2013-03-17 21:38:00,
2013-03-17 17:43:00,65.8,48.2,29.78,SSW,193,6.0,12.0,53,0.00,,,0.00,Wunderground v.1.15,2013-03-17 21:43:00,
2013-03-17 17:48:00,65.6,48.5,29.78,SSE,159,6.0,6.0,54,0.00,,,0.00,Wunderground v.1.15,2013-03-17 21:48:00,
2013-03-17 17:53:00,65.5,48.4,29.78,SSE,167,5.0,12.0,54,0.00,,,0.00,Wunderground v.1.15,2013-03-17 21:53:00,
2013-03-17 17:58:00,65.4,48.8,29.78,South,169,4.0,12.0,55,0.00,,,0.00,Wunderground v.1.15,2013-03-17 21:58:00,
2013-03-17 18:03:00,65.4,48.8,29.78,SSW,202,5.0,13.0,55,0.00,,,0.00,Wunderground v.1.15,2013-03-17 22:03:00,
2013-03-17 18:13:00,65.0,48.4,29.78,SSE,160,4.0,13.0,55,0.00,,,0.00,Wunderground v.1.15,2013-03-17 22:13:00,
2013-03-17 18:23:00,64.9,48.8,29.78,SW,232,4.0,13.0,56,0.00,,,0.00,Wunderground v.1.15,2013-03-17 22:23:00,
2013-03-17 18:28:00,64.5,48.9,29.78,South,174,4.0,4.0,57,0.00,,,0.00,Wunderground v.1.15,2013-03-17 22:28:00,
2013-03-17 18:34:00,63.9,48.8,29.78,SSE,148,4.0,13.0,58,0.00,,,0.00,Wunderground v.1.15,2013-03-17 22:34:00,
2013-03-17 18:39:00,63.6,49.0,29.78,South,184,4.0,4.0,59,0.00,,,0.00,Wunderground v.1.15,2013-03-17 22:39:00,
2013-03-17 18:49:00,63.1,48.5,29.79,South,190,3.0,3.0,59,0.00,,,0.00,Wunderground v.1.15,2013-03-17 22:49:00,
2013-03-17 18:59:00,62.7,48.6,29.79,South,182,4.0,4.0,60,0.00,,,0.00,Wunderground v.1.15,2013-03-17 22:59:00,
2013-03-17 19:04:00,62.5,48.4,29.79,South,190,3.0,15.0,60,0.00,,,0.00,Wunderground v.1.15,2013-03-17 23:04:00,
2013-03-17 19:13:00,62.1,48.5,29.80,SSE,155,3.0,15.0,61,0.00,,,0.00,Wunderground v.1.15,2013-03-17 23:13:00,
2013-03-17 19:19:00,61.9,48.3,29.80,South,190,3.0,15.0,61,0.00,,,0.00,Wunderground v.1.15,2013-03-17 23:19:00,
2013-03-17 19:28:00,61.4,48.7,29.80,SSE,160,2.0,2.0,63,0.00,,,0.00,Wunderground v.1.15,2013-03-17 23:28:00,
2013-03-17 19:33:00,60.9,48.6,29.80,SW,234,1.0,15.0,64,0.00,,,0.00,Wunderground v.1.15,2013-03-17 23:33:00,
2013-03-17 19:39:00,60.5,48.7,29.81,WNW,295,1.0,1.0,65,0.00,,,0.00,Wunderground v.1.15,2013-03-17 23:39:00,
2013-03-17 19:44:00,60.2,48.4,29.81,SSE,157,1.0,15.0,65,0.00,,,0.00,Wunderground v.1.15,2013-03-17 23:44:00,
2013-03-17 19:49:00,60.0,48.6,29.81,SSW,192,0.0,15.0,66,0.00,,,0.00,Wunderground v.1.15,2013-03-17 23:49:00,
2013-03-17 19:59:00,59.0,48.4,29.82,SSE,163,1.0,1.0,68,0.00,,,0.00,Wunderground v.1.15,2013-03-17 23:59:00,
2013-03-17 20:09:00,58.6,48.5,29.83,SSW,199,1.0,1.0,69,0.00,,,0.00,Wunderground v.1.15,2013-03-18 00:09:00,
2013-03-17 20:14:00,58.2,48.1,29.83,South,186,1.0,8.0,69,0.00,,,0.00,Wunderground v.1.15,2013-03-18 00:14:00,
2013-03-17 20:23:00,57.8,48.1,29.83,South,169,0.0,8.0,70,0.00,,,0.00,Wunderground v.1.15,2013-03-18 00:23:00,
2013-03-17 20:28:00,57.8,48.1,29.83,North,355,0.0,8.0,70,0.00,,,0.00,Wunderground v.1.15,2013-03-18 00:28:00,
2013-03-17 20:38:00,57.6,47.5,29.84,SE,145,1.0,1.0,69,0.00,,,0.00,Wunderground v.1.15,2013-03-18 00:38:00,
2013-03-17 20:43:00,57.5,47.4,29.84,South,173,1.0,8.0,69,0.00,,,0.00,Wunderground v.1.15,2013-03-18 00:43:00,
2013-03-17 20:48:00,57.3,47.6,29.84,South,171,1.0,1.0,70,0.00,,,0.00,Wunderground v.1.15,2013-03-18 00:48:00,
2013-03-17 20:54:00,57.0,47.3,29.84,SSW,201,1.0,8.0,70,0.00,,,0.00,Wunderground v.1.15,2013-03-18 00:54:00,
2013-03-17 21:04:00,56.2,47.3,29.85,NNE,19,0.0,8.0,72,0.00,,,0.00,Wunderground v.1.15,2013-03-18 01:04:00,
2013-03-17 21:13:00,55.3,46.8,29.85,SSE,152,1.0,6.0,73,0.00,,,0.00,Wunderground v.1.15,2013-03-18 01:13:00,
2013-03-17 21:18:00,54.9,46.8,29.85,NE,56,1.0,1.0,74,0.00,,,0.00,Wunderground v.1.15,2013-03-18 01:18:00,
2013-03-17 21:23:00,54.8,46.7,29.85,NNE,19,1.0,6.0,74,0.00,,,0.00,Wunderground v.1.15,2013-03-18 01:23:00,
2013-03-17 21:29:00,54.5,46.7,29.86,NW,308,1.0,1.0,75,0.00,,,0.00,Wunderground v.1.15,2013-03-18 01:29:00,
2013-03-17 21:34:00,54.2,46.4,29.86,SSE,167,1.0,6.0,75,0.00,,,0.00,Wunderground v.1.15,2013-03-18 01:34:00,
2013-03-17 21:43:00,53.8,46.4,29.86,North,355,1.0,3.0,76,0.00,,,0.00,Wunderground v.1.15,2013-03-18 01:43:00,
2013-03-17 21:48:00,53.4,46.4,29.86,ENE,69,1.0,1.0,77,0.00,,,0.00,Wunderground v.1.15,2013-03-18 01:48:00,
2013-03-17 21:53:00,53.2,46.2,29.87,SW,234,1.0,2.0,77,0.00,,,0.00,Wunderground v.1.15,2013-03-18 01:53:00,
2013-03-17 21:58:00,52.9,46.2,29.87,North,355,1.0,1.0,78,0.00,,,0.00,Wunderground v.1.15,2013-03-18 01:58:00,
2013-03-17 22:08:00,52.2,45.9,29.88,ENE,63,1.0,1.0,79,0.00,,,0.00,Wunderground v.1.15,2013-03-18 02:08:00,
2013-03-17 22:13:00,52.1,45.8,29.88,NNE,17,0.0,11.0,79,0.00,,,0.00,Wunderground v.1.15,2013-03-18 02:13:00,
2013-03-17 22:18:00,51.8,45.8,29.88,NNE,29,0.0,11.0,80,0.00,,,0.00,Wunderground v.1.15,2013-03-18 02:18:00,
2013-03-17 22:23:00,51.6,45.6,29.88,SW,226,0.0,11.0,80,0.00,,,0.00,Wunderground v.1.15,2013-03-18 02:23:00,
2013-03-17 22:28:00,51.4,45.8,29.89,SSE,158,1.0,1.0,81,0.00,,,0.00,Wunderground v.1.15,2013-03-18 02:28:00,
2013-03-17 22:33:00,51.2,45.6,29.89,NE,44,1.0,11.0,81,0.00,,,0.00,Wunderground v.1.15,2013-03-18 02:33:00,
2013-03-17 22:38:00,50.9,45.3,29.89,NNW,327,0.0,11.0,81,0.00,,,0.00,Wunderground v.1.15,2013-03-18 02:38:00,
2013-03-17 22:48:00,50.4,45.1,29.89,SSE,154,1.0,1.0,82,0.00,,,0.00,Wunderground v.1.15,2013-03-18 02:48:00,
2013-03-17 22:58:00,49.9,44.9,29.88,SSW,194,1.0,11.0,83,0.00,,,0.00,Wunderground v.1.15,2013-03-18 02:58:00,
2013-03-17 23:03:00,49.7,44.7,29.89,South,180,2.0,11.0,83,0.00,,,0.00,Wunderground v.1.15,2013-03-18 03:03:00,
2013-03-17 23:13:00,49.2,44.6,29.88,South,180,1.0,10.0,84,0.00,,,0.00,Wunderground v.1.15,2013-03-18 03:13:00,
2013-03-17 23:18:00,48.8,44.2,29.88,SE,125,1.0,10.0,84,0.00,,,0.00,Wunderground v.1.15,2013-03-18 03:18:00,
2013-03-17 23:28:00,48.0,43.7,29.89,South,191,1.0,1.0,85,0.00,,,0.00,Wunderground v.1.15,2013-03-18 03:28:00,
2013-03-17 23:33:00,47.6,43.6,29.89,SSW,208,1.0,2.0,86,0.00,,,0.00,Wunderground v.1.15,2013-03-18 03:33:00,
2013-03-17 23:38:00,47.2,43.2,29.89,NE,56,1.0,10.0,86,0.00,,,0.00,Wunderground v.1.15,2013-03-18 03:38:00,
2013-03-17 23:43:00,46.9,43.2,29.90,NW,309,0.0,10.0,87,0.00,,,0.00,Wunderground v.1.15,2013-03-18 03:43:00,
2013-03-17 23:48:00,46.6,42.9,29.90,NW,317,1.0,1.0,87,0.00,,,0.00,Wunderground v.1.15,2013-03-18 03:48:00,
2013-03-17 23:58:00,46.2,42.8,29.90,South,180,1.0,1.0,88,0.00,,,0.00,Wunderground v.1.15,2013-03-18 03:58:00,